Location: Newark
(58.8333°N, 23.5833°E)
Time: 20:54:17
(UTC+00:00)

NUDT-PHONESAT - Visible Passes

Search period start: 14 December 2019 00:00
Search period end: 24 December 2019 00:00
Orbit: 488 x 503 km, 97.4° (Epoch: 14 December)

Date Brightness Start Highest point End Pass type
(mag) Time Alt. Az. Time Alt. Az. Time Alt. Az.
14 Dec ? 03:42:17 10° ENE 03:43:33 11° E 03:44:49 10° ESE visible
14 Dec ? 05:14:12 10° NNE 05:17:56 73° ESE 05:21:38 10° S visible
14 Dec ? 14:27:40 10° ESE 14:30:27 21° ENE 14:33:15 10° N visible
14 Dec ? 16:00:07 10° S 16:03:47 66° WSW 16:07:30 10° NNW visible
14 Dec ? 17:37:33 10° W 17:38:13 10° W 17:38:53 10° WNW visible
15 Dec ? 04:53:16 10° NNE 04:56:53 46° E 05:00:27 10° S visible
15 Dec ? 15:39:05 10° SSE 15:42:46 79° ENE 15:46:31 10° NNW visible
15 Dec ? 17:14:38 10° SW 17:16:56 16° W 17:19:16 10° NW visible
16 Dec ? 04:32:26 10° NNE 04:35:47 30° E 04:39:04 10° SSE visible
16 Dec ? 06:06:02 10° N 06:09:32 39° WNW 06:12:59 10° SW visible
16 Dec ? 15:18:13 10° SE 15:21:49 51° ENE 15:25:26 10° N visible
16 Dec ? 16:52:44 10° SSW 16:55:44 23° W 16:58:46 10° NW visible
17 Dec ? 04:11:45 10° NE 04:14:36 20° E 04:17:24 10° SE visible
17 Dec ? 05:44:55 10° N 05:48:36 59° WNW 05:52:14 10° SSW visible
17 Dec ? 14:57:32 10° SE 15:00:54 34° ENE 15:04:18 10° N visible
17 Dec ? 16:31:10 10° SSW 16:34:35 34° W 16:38:01 10° NNW visible
18 Dec ? 03:51:24 10° NE 03:53:21 14° E 03:55:18 10° ESE visible
18 Dec ? 05:23:52 10° NNE 05:27:37 89° E 05:31:19 10° SSW visible
18 Dec ? 14:37:01 10° ESE 14:40:02 24° ENE 14:43:04 10° N visible
18 Dec ? 16:09:51 10° S 16:13:29 54° W 16:17:08 10° NNW visible
19 Dec ? 05:02:53 10° NNE 05:06:35 57° ESE 05:10:13 10° S visible
19 Dec ? 15:48:43 10° SSE 15:52:25 85° WSW 15:56:10 10° NNW visible
19 Dec ? 17:24:54 10° WSW 17:26:42 13° W 17:28:31 10° NW visible
20 Dec ? 04:42:00 10° NNE 04:45:28 36° E 04:48:55 10° SSE visible
20 Dec ? 06:15:46 10° N 06:19:07 32° WNW 06:22:27 10° SW visible
20 Dec ? 15:27:46 10° SSE 15:31:26 62° ENE 15:35:07 10° N visible
20 Dec ? 17:02:43 10° SW 17:05:27 19° W 17:08:13 10° NW visible
21 Dec ? 04:21:14 10° NE 04:24:19 24° E 04:27:22 10° SSE visible
21 Dec ? 05:54:36 10° N 05:58:12 48° WNW 06:01:46 10° SW visible
21 Dec ? 15:06:59 10° SE 15:10:29 41° ENE 15:14:00 10° N visible
21 Dec ? 16:41:01 10° SSW 16:44:16 29° W 16:47:33 10° NNW visible
22 Dec ? 04:00:40 10° NE 04:03:05 16° E 04:05:29 10° SE visible
22 Dec ? 05:33:30 10° NNE 05:37:14 75° WNW 05:40:54 10° SSW visible
22 Dec ? 14:46:23 10° ESE 14:49:35 28° ENE 14:52:48 10° N visible
22 Dec ? 16:19:34 10° S 16:23:07 44° W 16:26:43 10° NNW visible
23 Dec ? 03:40:47 10° ENE 03:41:48 11° E 03:42:48 10° E visible
23 Dec ? 05:12:28 10° NNE 05:16:12 70° ESE 05:19:52 10° S visible
23 Dec ? 14:25:58 10° ESE 14:28:43 20° NE 14:31:29 10° N visible
23 Dec ? 15:58:20 10° S 16:02:02 69° WSW 16:05:46 10° NNW visible
23 Dec ? 17:35:26 10° W 17:36:26 11° W 17:37:26 10° WNW visible
